When you browse on this site, cookies collect data to enhance your experience and personalize the content and advertising you see.
Visit our Privacy Policy to learn more. By continuing to use the site, you agree to this use of cookies and data.
  • In Latvia
  • List of Countries
  • For 7 days
  • Water Temperature
  • Weather Map
  • Weather Widgets
  • user-avatar
    Login

    Hourly Weather Nakhchivan

    Today, 24 September, Tuesday

    Time Temperature Precipitation Wind Pressure Humidity
    00:00 +20°C° 0 mm 2 mps 687 mmHg 38%
    01:00 +19°C° 0 mm 2 mps 687 mmHg 39%
    02:00 +18°C° 0 mm 2 mps 687 mmHg 41%
    03:00 +19°C° 0 mm 1 mps 687 mmHg 41%
    04:00 +18°C° 0 mm 1 mps 687 mmHg 43%
    05:00 +18°C° 0 mm 1 mps 687 mmHg 44%
    06:00 +16°C° 0 mm 1 mps 687 mmHg 46%
    07:00 +19°C° 0 mm 1 mps 688 mmHg 41%
    08:00 +21°C° 0 mm 1 mps 688 mmHg 36%
    09:00 +23°C° 0 mm 1 mps 689 mmHg 32%
    10:00 +24°C° 0 mm 1 mps 688 mmHg 29%
    11:00 +26°C° 0 mm 1 mps 688 mmHg 26%
    12:00 +27°C° 0 mm 1 mps 688 mmHg 22%
    13:00 +28°C° 0 mm 1 mps 688 mmHg 20%
    14:00 +29°C° 0 mm 2 mps 687 mmHg 17%
    15:00 +30°C° 0 mm 2 mps 687 mmHg 14%
    16:00 +29°C° 0 mm 2 mps 687 mmHg 16%
    17:00 +28°C° 0 mm 1 mps 687 mmHg 17%
    18:00 +27°C° 0 mm 1 mps 686 mmHg 19%
    19:00 +26°C° 0 mm 1 mps 687 mmHg 22%
    20:00 +25°C° 0 mm 2 mps 687 mmHg 25%
    21:00 +24°C° 0 mm 2 mps 687 mmHg 28%
    22:00 +23°C° 0 mm 2 mps 687 mmHg 31%
    23:00 +21°C° 0 mm 2 mps 686 mmHg 33%

    Tomorrow, 25 September, Wednesday

    Time Temperature Precipitation Wind Pressure Humidity
    00:00 +21°C° 0 mm 2 mps 686 mmHg 36%
    01:00 +21°C° 0 mm 1 mps 686 mmHg 37%
    02:00 +20°C° 0 mm 1 mps 686 mmHg 39%
    03:00 +20°C° 0 mm 1 mps 686 mmHg 40%
    04:00 +19°C° 0 mm 1 mps 686 mmHg 41%
    05:00 +19°C° 0 mm 1 mps 686 mmHg 42%
    06:00 +18°C° 0 mm 1 mps 686 mmHg 42%
    07:00 +20°C° 0 mm 1 mps 686 mmHg 37%
    08:00 +23°C° 0 mm 1 mps 687 mmHg 31%
    09:00 +25°C° 0 mm 1 mps 688 mmHg 25%
    10:00 +26°C° 0 mm 1 mps 687 mmHg 21%
    11:00 +28°C° 0 mm 1 mps 687 mmHg 18%
    12:00 +29°C° 0 mm 1 mps 687 mmHg 14%
    13:00 +30°C° 0 mm 1 mps 687 mmHg 13%
    14:00 +31°C° 0 mm 2 mps 687 mmHg 11%
    15:00 +32°C° 0 mm 2 mps 687 mmHg 10%
    16:00 +30°C° 0 mm 2 mps 687 mmHg 12%
    17:00 +29°C° 0 mm 1 mps 687 mmHg 13%
    18:00 +28°C° 0 mm 1 mps 687 mmHg 15%
    19:00 +27°C° 0 mm 1 mps 687 mmHg 15%
    20:00 +26°C° 0 mm 1 mps 687 mmHg 16%
    21:00 +26°C° 0 mm 1 mps 687 mmHg 17%
    22:00 +25°C° 0 mm 1 mps 687 mmHg 19%
    23:00 +24°C° 0 mm 1 mps 687 mmHg 22%

    Day after tomorrow, 26 September, Thursday

    Time Temperature Precipitation Wind Pressure Humidity
    00:00 +24°C° 0 mm 1 mps 687 mmHg 25%
    01:00 +23°C° 0 mm 1 mps 687 mmHg 27%
    02:00 +23°C° 0 mm 1 mps 687 mmHg 29%
    03:00 +22°C° 0 mm 1 mps 687 mmHg 31%
    04:00 +22°C° 0 mm 1 mps 687 mmHg 30%
    05:00 +22°C° 0 mm 1 mps 688 mmHg 29%
    06:00 +22°C° 0 mm 1 mps 688 mmHg 29%
    07:00 +24°C° 0 mm 2 mps 688 mmHg 25%
    08:00 +26°C° 0 mm 2 mps 688 mmHg 21%
    09:00 +27°C° 0 mm 2 mps 689 mmHg 17%
    10:00 +29°C° 0 mm 2 mps 688 mmHg 15%
    11:00 +30°C° 0 mm 3 mps 688 mmHg 14%
    12:00 +33°C° 0 mm 3 mps 688 mmHg 13%
    13:00 +34°C° 0 mm 2 mps 688 mmHg 13%
    14:00 +34°C° 0 mm 2 mps 687 mmHg 12%
    15:00 +35°C° 0 mm 2 mps 686 mmHg 12%
    16:00 +34°C° 0 mm 2 mps 686 mmHg 14%
    17:00 +31°C° 0 mm 2 mps 686 mmHg 16%
    18:00 +30°C° 0 mm 2 mps 686 mmHg 18%
    19:00 +29°C° 0 mm 1 mps 686 mmHg 19%
    20:00 +28°C° 0 mm 1 mps 686 mmHg 20%
    21:00 +27°C° 0 mm 1 mps 686 mmHg 21%
    22:00 +27°C° 0 mm 1 mps 686 mmHg 22%
    23:00 +26°C° 0 mm 1 mps 686 mmHg 24%

    27 September, Friday

    Time Temperature Precipitation Wind Pressure Humidity
    00:00 +25°C° 0 mm 1 mps 686 mmHg 25%
    01:00 +24°C° 0 mm 1 mps 686 mmHg 26%
    02:00 +24°C° 0 mm 1 mps 686 mmHg 28%
    03:00 +23°C° 0 mm 1 mps 686 mmHg 30%
    04:00 +22°C° 0 mm 1 mps 686 mmHg 31%
    05:00 +22°C° 0 mm 1 mps 686 mmHg 33%
    06:00 +21°C° 0 mm 1 mps 686 mmHg 35%
    07:00 +23°C° 0 mm 1 mps 686 mmHg 31%
    08:00 +26°C° 0 mm 1 mps 687 mmHg 26%
    09:00 +26°C° 0 mm 0 mps 687 mmHg 22%
    10:00 +29°C° 0 mm 1 mps 687 mmHg 20%
    11:00 +30°C° 0 mm 1 mps 687 mmHg 18%
    12:00 +31°C° 0 mm 1 mps 687 mmHg 16%
    13:00 +32°C° 0 mm 1 mps 687 mmHg 15%
    14:00 +34°C° 0 mm 2 mps 687 mmHg 13%
    15:00 +35°C° 0 mm 2 mps 687 mmHg 12%
    16:00 +32°C° 0 mm 2 mps 686 mmHg 13%
    17:00 +31°C° 0 mm 2 mps 686 mmHg 15%
    18:00 +30°C° 0 mm 1 mps 686 mmHg 16%
    19:00 +29°C° 0 mm 2 mps 687 mmHg 20%
    20:00 +28°C° 0 mm 2 mps 687 mmHg 24%
    21:00 +27°C° 0 mm 2 mps 687 mmHg 27%
    22:00 +26°C° 0 mm 2 mps 687 mmHg 32%
    23:00 +25°C° 0 mm 2 mps 687 mmHg 36%

    28 September, Saturday

    Time Temperature Precipitation Wind Pressure Humidity
    00:00 +24°C° 0 mm 2 mps 687 mmHg 40%
    01:00 +23°C° 0 mm 2 mps 687 mmHg 42%
    02:00 +23°C° 0 mm 2 mps 687 mmHg 44%
    03:00 +21°C° 0 mm 2 mps 687 mmHg 46%
    04:00 +22°C° 0 mm 1 mps 687 mmHg 47%
    05:00 +21°C° 0 mm 1 mps 687 mmHg 49%
    06:00 +21°C° 0 mm 1 mps 686 mmHg 50%
    07:00 +23°C° 0 mm 1 mps 687 mmHg 43%
    08:00 +25°C° 0 mm 1 mps 687 mmHg 37%
    09:00 +27°C° 0 mm 1 mps 687 mmHg 31%
    10:00 +28°C° 0 mm 1 mps 687 mmHg 27%
    11:00 +30°C° 0 mm 1 mps 687 mmHg 23%
    12:00 +31°C° 0 mm 1 mps 687 mmHg 19%
    13:00 +30°C° 0 mm 5 mps 686 mmHg 22%
    14:00 +31°C° 0 mm 10 mps 686 mmHg 25%
    15:00 +29°C° 0 mm 14 mps 686 mmHg 29%
    16:00 +27°C° 0 mm 12 mps 686 mmHg 34%
    17:00 +24°C° 0 mm 9 mps 686 mmHg 40%
    18:00 +22°C° 0 mm 7 mps 686 mmHg 46%
    19:00 +22°C° 0 mm 5 mps 687 mmHg 45%
    20:00 +22°C° 0 mm 4 mps 688 mmHg 45%
    21:00 +23°C° 0 mm 2 mps 688 mmHg 45%
    22:00 +21°C° 0 mm 2 mps 688 mmHg 47%
    23:00 +20°C° 0 mm 2 mps 688 mmHg 49%

    29 September, Sunday

    Time Temperature Precipitation Wind Pressure Humidity
    00:00 +21°C° 0 mm 1 mps 688 mmHg 51%
    01:00 +20°C° 0 mm 1 mps 688 mmHg 53%
    02:00 +19°C° 0 mm 1 mps 688 mmHg 55%
    03:00 +19°C° 0 mm 1 mps 688 mmHg 58%
    04:00 +18°C° 0 mm 1 mps 688 mmHg 59%
    05:00 +18°C° 0 mm 1 mps 688 mmHg 61%
    06:00 +16°C° 0 mm 1 mps 688 mmHg 62%
    07:00 +18°C° 0 mm 1 mps 688 mmHg 58%
    08:00 +19°C° 0 mm 1 mps 689 mmHg 53%
    09:00 +21°C° 0 mm 1 mps 689 mmHg 49%
    10:00 +22°C° 0 mm 1 mps 689 mmHg 44%
    11:00 +23°C° 0 mm 1 mps 689 mmHg 40%
    12:00 +24°C° 0 mm 1 mps 689 mmHg 36%
    13:00 +25°C° 0 mm 1 mps 689 mmHg 33%
    14:00 +26°C° 0 mm 2 mps 688 mmHg 31%
    15:00 +27°C° 0 mm 2 mps 688 mmHg 29%
    16:00 +26°C° 0 mm 2 mps 688 mmHg 31%
    17:00 +25°C° 0 mm 2 mps 688 mmHg 34%
    18:00 +25°C° 0 mm 2 mps 688 mmHg 37%
    19:00 +24°C° 0 mm 2 mps 688 mmHg 42%
    20:00 +21°C° 0 mm 3 mps 689 mmHg 46%
    21:00 +20°C° 0 mm 3 mps 689 mmHg 51%
    22:00 +19°C° 0 mm 3 mps 689 mmHg 53%
    23:00 +19°C° 0 mm 2 mps 689 mmHg 55%
    Show more